Weather History for Milford, UT

Change the Weather History Date:

Sunday, September 8, 2013

  Actual Average Record
Temperature  
Mean Temperature 67 °F -  
Max Temperature 73 °F 81 °F 91 °F (2004)
Min Temperature 61 °F 47 °F 39 °F (2001)
Cooling Degree Days 2    
Growing Degree Days 17 (Base 50)    
Moisture  
Dew Point 56 °F    
Average Humidity 73    
Maximum Humidity 90    
Minimum Humidity 43    
Precipitation  
Precipitation 0.02 in - - ()
Sea Level Pressure  
Sea Level Pressure 29.93 in    
Wind  
Wind Speed 3 mph (North)    
Max Wind Speed 9 mph    
Max Gust Speed -    
Visibility 10 miles    
Events Rain    
Averages and records for this station are not official NWS values.
T = Trace of Precipitation, MM = Missing Value Source: NWS Daily Summary

Daily Weather History Graph

Daily Weather History Graph

Search for Another Location

Airport:

Trip Planner

Search our weather history database for the weather conditions in past years. The results will help you decide how hot, cold, wet, or windy it might be!

Date:

Astronomy

Sep. 08, 2013 Rise Set
Actual Time 7:07 AM MDT 7:50 PM MDT
Civil Twilight 6:41 AM MDT 8:17 PM MDT
Nautical Twilight 6:09 AM MDT 8:48 PM MDT
Astronomical Twilight 5:36 AM MDT 9:21 PM MDT
Moon 10:26 AM MDT (9/8) 9:32 PM MDT (9/8)
Length of Visible Light 13h 36m
Length of Day
12h 42m
Waxing Crescent, 11% of the Moon is Illuminated
Sep 8
Waxing Crescent
Sep 12
First Quarter
Sep 19
Full
Sep 26
Last Quarter
Oct 4
New

Hourly Weather History & Observations

Time (MDT) Temp. Dew Point Humidity Pressure Visibility Wind Dir Wind Speed Gust Speed Precip Events Conditions
12:52 AM 63.0 °F 57.0 °F 81% 30.01 in 10.0 mi Calm Calm - 0.00 in Rain Light Rain
1:52 AM 61.0 °F 57.0 °F 87% 29.99 in 10.0 mi ESE 3.5 mph - 0.02 in Rain Light Rain
2:52 AM 62.1 °F 57.9 °F 86% 29.96 in 10.0 mi West 3.5 mph - 0.00 in Rain Light Rain
3:52 AM 61.0 °F 57.0 °F 87% 29.94 in 10.0 mi ESE 3.5 mph - 0.00 in   Overcast
4:52 AM 63.0 °F 57.0 °F 81% 29.93 in 10.0 mi Calm Calm - N/A   Overcast
5:52 AM 61.0 °F 57.9 °F 90% 29.93 in 10.0 mi West 4.6 mph - N/A   Overcast
6:52 AM 61.0 °F 57.9 °F 90% 29.95 in 10.0 mi Calm Calm - 0.00 in   Overcast
7:52 AM 61.0 °F 57.9 °F 90% 29.97 in 10.0 mi Calm Calm - 0.01 in Rain Light Rain
8:52 AM 63.0 °F 59.0 °F 87% 29.97 in 10.0 mi North 3.5 mph - 0.01 in   Overcast
9:52 AM 63.0 °F 57.9 °F 84% 29.99 in 10.0 mi North 8.1 mph - N/A   Overcast
10:52 AM 64.0 °F 57.9 °F 80% 29.98 in 10.0 mi North 9.2 mph - N/A   Overcast
11:52 AM 64.9 °F 57.0 °F 75% 29.97 in 10.0 mi North 6.9 mph - N/A   Overcast
12:52 PM 66.9 °F 57.0 °F 70% 29.96 in 10.0 mi NNE 6.9 mph - N/A   Overcast
1:52 PM 69.1 °F 57.0 °F 65% 29.95 in 10.0 mi Variable 4.6 mph - N/A   Overcast
2:52 PM 71.1 °F 55.9 °F 59% 29.92 in 10.0 mi Calm Calm - N/A   Mostly Cloudy
3:52 PM 71.1 °F 53.1 °F 53% 29.89 in 10.0 mi Calm Calm - N/A   Overcast
4:52 PM 72.0 °F 54.0 °F 53% 29.87 in 10.0 mi NNE 9.2 mph - N/A   Overcast
5:52 PM 73.0 °F 55.0 °F 53% 29.87 in 10.0 mi NE 8.1 mph - N/A   Mostly Cloudy
6:52 PM 71.1 °F 54.0 °F 55% 29.86 in 10.0 mi North 6.9 mph - N/A   Partly Cloudy
7:52 PM 69.1 °F 54.0 °F 58% 29.85 in 10.0 mi NNW 6.9 mph - N/A   Clear
8:52 PM 66.0 °F 54.0 °F 65% 29.86 in 10.0 mi NNW 4.6 mph - N/A   Partly Cloudy
9:52 PM 63.0 °F 55.0 °F 75% 29.88 in 10.0 mi Calm Calm - N/A   Clear
10:52 PM 64.0 °F 55.0 °F 73% 29.88 in 10.0 mi NE 3.5 mph - N/A   Clear
11:52 PM 62.1 °F 55.0 °F 78% 29.88 in 10.0 mi West 4.6 mph - N/A   Clear